SCP
0 0 0 0 0 0 -0 -0 0 0 0 -0 -0 -0 -0 0 0 0 0 0 0 0 0 0 -0 0 0 -0 0 -0 -0 -0 0 0 0 0 0 0 0 0 0 0 0 -0 0 0 0
0 0 0 0 0 0 0 -0 -0 0 0 0 0 -0 -0 -0 0 0 0 0 0 0 0 -0 -0 0 0 0 -0 -0 -0 -0 -0 0 0 0 0 0 0 0 0 -0 0 0 0 -0 -0
0 0 0 0 0 0 0 0 -0 -0 -0 0 0 0 0 -0 -0 0 0 0 0 0 -0 -0 -0 -0 0 -0 0 -0 -0 -0 -0 0 0 0 0 0 0 0 0 0 0 0 -0 -0 -0
0 0 0 0 0 0 0 0 0 0 0 -0 0 0 0 0 -0 -0 0 0 0 0 -0 -0 -0 -0 0 0 0 0 0 -0 -0 0 0 0 0 0 0 -0 0 0 -0 -0 -0 0 0
0 0 0 0 0 0 0 0 0 0 0 0 0 0 0 0 0 -0 0 0 0 -0 -0 -0 -0 0 0 0 0 0 -0 -0 -0 0 0 0 0 0 0 0 -0 -0 -0 -0 0 0 0
0 0 0 0 0 0 0 0 0 0 0 0 0 0 0 0 0 0 -0 0 -0 -0 -0 -0 0 0 -0 0 0 0 0 0 -0 0 0 0 0 -0 -0 -0 -0 -0 -0 0 0 -0 0
0 0 0 0 0 0 0 0 0 0 0 0 0 0 0 0 0 0 -0 0 0 0 0 0 0 0 0 0 0 0 0 0 -0 0 -0 0 -0 -0 -0 0 0 0 -0 -0 0 0 0
0 0 0 0 0 0 0 0 0 0 0 0 0 0 0 0 0 0 0 0 0 0 0 0 0 0 0 0 0 0 0 0 -0 -0 -0 -0 -0 -0 0 0 -0 -0 0 0 0 0 0
0 0 0 0 0 0 0 0 0 0 0 0 0 0 0 0 -0 0 0 0 0 0 0 0 0 0 0 0 0 0 0 0 0 0 -0 -0 -0 0 0 0 -0 -0 -0 0 0 0 0
0 0 0 0 0 0 0 0 0 0 0 0 0 0 0 0 0 0 0 0 0 0 0 0 0 0 0 0 0 0 0 0 0 0 -0 0 0 0 0 0 -0 -0 0 0 0 0 0
0 0 0 0 0 0 0 0 0 0 0 0 0 0 0 0 0 0 0 0 0 0 0 -0 -0 0 0 0 0 0 0 0 0 0 0 -0 -0 0 0 0 0 -0 0 0 0 0 0
0 0 0 0 0 0 0 0 0 0 0 0 0 0 0 0 0 0 0 0 0 0 0 0 -0 0 -0 0 0 0 0 0 -0 -0 0 0 0 0 -0 0 0 0 0 0 -0 -0 -0
0 0 0 0 0 0 0 0 0 0 0 0 0 0 0 0 0 0 0 0 0 0 0 0 0 -0 0 0 0 0 0 0 0 0 0 0 -0 0 0 0 0 0 0 -0 0 0 -0
0 0 0 0 0 0 0 0 0 0 0 0 0 0 0 0 0 0 0 0 0 0 0 0 -0 -0 0 -0 0 0 0 0 0 0 0 0 0 -0 -0 0 0 0 0 0 0 0 -0
0 0 0 0 0 0 0 0 0 0 0 0 0 0 0 0 0 0 0 0 0 -0 0 0 0 -0 0 0 0 0 0 0 0 0 0 0 0 0 0 0 0 0 0 0 0 0 0
0 0 0 0 0 0 0 0 0 0 0 -0 0 0 0 0 0 0 0 0 0 -0 0 0 0 0 -0 0 0 0 0 0 0 0 -0 -0 0 0 0 0 -0 0 0 0 0 -0 -0
0 0 0 0 0 0 0 0 0 0 0 -0 0 0 0 0 0 0 0 0 0 -0 0 0 0 0 0 0 0 0 0 0 0 0 0 -0 -0 -0 0 0 0 0 0 0 0 0 0
0 0 0 0 0 0 0 0 0 0 0 0 0 0 0 0 0 0 0 0 0 0 0 0 0 0 0 -0 0 0 0 0 0 0 0 -0 -0 -0 0 0 0 0 0 0 0 0 0
0 0 0 0 0 0 0 0 0 0 0 0 0 0 0 0 0 0 0 0 0 0 0 0 0 0 -0 0 0 0 0 0 0 -0 0 0 0 0 0 0 0 0 0 0 0 0 0
0 0 0 0 0 0 0 0 0 0 0 0 0 0 0 0 0 0 0 0 0 0 0 0 -0 -0 0 0 0 0 0 0 0 0 0 0 0 0 0 0 0 0 0 0 0 0 0
0 0 0 0 0 0 0 0 0 0 0 0 0 0 0 0 0 0 0 0 0 0 0 0 0 -0 0 0 0 0 0 -0 0 0 0 0 0 0 0 0 0 0 0 0 0 0 0
0 0 0 0 0 0 0 0 0 0 0 0 0 0 0 0 0 0 0 0 0 0 0 0 0 -0 0 0 -0 -0 0 0 0 0 0 0 0 0 0 0 0 0 0 0 0 0 0
0 0 0 0 0 0 0 0 0 0 0 0 0 0 0 0 0 0 0 0 0 0 0 0 0 0 0 0 0 0 0 0 0 0 0 0 0 0 0 0 0 0 0 0 0 0 0
0 0 0 0 0 0 0 0 0 0 0 0 0 0 0 0 0 0 0 0 0 0 -0 0 0 0 0 0 0 0 0 0 0 0 0 1 1 0 0 0 0 0 0 0 0 0 0
0 0 0 0 0 0 0 0 0 0 0 0 0 0 0 0 0 0 0 0 0 0 0 0 0 0 0 0 0 0 0 0 0 0 0 1 1 1 0 0 0 0 0 0 0 0 0
0 0 0 0 0 0 0 0 0 0 0 0 0 0 0 0 0 0 0 0 0 0 0 0 -0 0 0 0 0 0 0 0 0 0 0 0 0 0 0 0 0 0 0 0 0 0 0
0 0 0 0 0 0 0 0 0 0 0 0 0 0 0 0 0 0 0 0 0 0 0 0 0 0 0 -0 0 0 0 0 0 0 1 0 0 0 0 0 0 0 -0 0 0 0 0
0 0 0 0 0 0 0 0 0 0 0 0 0 0 0 0 0 0 0 0 0 0 0 0 0 0 0 0 0 0 0 0 0 0 0 0 0 0 0 0 0 0 1 1 1 1 1
0 0 0 0 0 0 0 0 0 0 0 0 0 0 0 0 0 0 0 0 0 0 0 0 0 0 0 0 0 0 0 0 -0 0 0 0 1 0 1 1 0 0 0 0 0 0 0
Wind_Speed_500mb
39 40 41 42 37 34 38 40 39 39 40 43 43 43 43 44 44 44 43 46 42 43 47 42 43 36 28 17 45 9 8 22 29 34 34 36 42 47 25 17 11 17 20 51 60 64 59
37 39 40 41 42 41 37 37 41 43 42 42 45 45 44 44 46 44 44 45 46 44 48 42 40 34 20 16 5 19 11 26 35 37 37 40 41 42 49 36 14 18 28 41 54 57 54
38 37 41 41 41 41 42 43 41 41 45 45 45 45 46 45 46 46 44 44 47 46 47 41 32 29 24 47 5 21 19 31 37 36 36 37 38 43 50 20 25 17 17 26 27 57 41
42 43 42 41 44 45 44 44 45 44 45 46 45 46 46 47 47 46 44 43 49 48 48 37 23 22 22 1 18 25 13 16 39 30 31 29 33 48 50 40 10 11 15 12 19 27 37
43 44 45 46 45 47 48 48 48 47 45 47 48 45 47 46 48 49 44 43 50 50 50 27 13 19 28 7 33 28 30 29 35 34 41 39 44 47 35 11 7 11 11 26 10 13 15
45 45 47 48 50 47 50 50 50 50 51 47 48 49 46 46 46 50 44 43 51 39 16 11 16 13 36 30 38 38 32 39 36 35 41 45 37 8 10 4 13 14 10 28 21 20 16
47 48 49 50 50 49 50 54 53 51 50 53 51 50 49 44 43 47 44 44 19 9 21 25 23 34 64 27 34 39 40 44 47 44 17 37 6 13 24 23 24 20 21 18 12 20 13
48 50 50 51 52 51 51 51 57 54 51 51 54 54 51 45 41 41 38 31 40 32 45 54 61 69 72 54 32 41 48 48 41 17 17 13 18 26 33 35 21 20 21 25 25 26 17
49 51 51 51 51 53 55 53 53 55 54 53 51 55 54 48 42 30 27 26 45 46 27 72 74 66 68 54 40 45 53 57 17 19 23 21 20 37 40 34 24 23 15 29 24 25 19
51 51 51 50 51 52 54 56 55 53 54 53 52 50 53 53 27 18 30 33 25 28 7 22 24 56 62 62 23 49 57 50 17 29 28 22 31 41 40 35 21 15 12 12 24 40 18
51 51 53 50 50 51 53 53 55 55 55 53 51 48 45 44 47 36 33 33 20 21 9 15 23 22 53 56 28 39 61 61 27 21 18 27 33 37 39 32 16 16 17 13 13 9 11
50 52 53 52 50 49 50 51 52 54 57 56 51 47 45 37 48 26 16 15 11 4 16 15 28 25 35 39 41 31 63 59 46 24 27 24 45 30 30 25 22 13 5 10 14 3 1
51 52 52 51 49 49 49 50 51 52 53 56 57 48 47 46 43 15 29 15 2 11 16 12 31 41 40 19 37 37 41 37 32 21 22 25 40 32 34 16 18 9 8 5 5 3 12
50 52 50 49 48 48 50 50 52 54 53 54 61 53 46 45 34 27 5 2 13 24 47 33 36 18 34 33 32 38 34 33 37 32 12 18 25 37 29 19 21 16 18 11 11 8 15
46 46 47 47 47 47 50 52 53 54 52 60 64 51 47 29 20 27 10 11 13 26 35 38 38 30 23 39 22 36 29 37 36 39 28 19 26 26 24 11 20 20 11 18 9 10 7
46 47 44 43 45 48 50 52 54 57 51 57 63 55 41 19 28 31 7 14 19 45 46 42 43 41 41 39 38 40 37 41 37 42 36 26 14 28 19 25 24 22 15 5 6 4 10
49 47 44 43 44 47 51 53 55 59 53 48 41 23 34 35 43 21 10 15 27 55 54 39 49 53 46 14 36 27 39 37 46 42 46 38 15 28 22 17 18 4 9 7 13 11 10
47 48 43 41 41 44 46 48 51 54 58 45 15 8 31 44 13 14 16 16 41 40 56 47 46 43 42 15 17 23 32 38 58 43 44 45 11 23 28 16 25 17 17 18 11 8 3
43 45 43 41 41 41 44 48 45 46 52 61 28 20 31 35 10 17 20 39 50 39 42 46 48 38 30 16 15 20 21 36 58 47 45 29 26 20 12 17 25 30 18 17 13 8 8
40 43 44 42 40 40 41 43 43 40 39 46 15 8 19 36 38 22 27 33 37 53 44 54 47 23 27 16 20 23 30 27 56 47 77 35 14 17 14 18 21 21 27 17 17 10 12
41 44 45 37 40 41 40 42 40 38 36 29 11 9 20 10 14 32 28 29 45 43 44 40 30 16 31 26 26 19 26 14 32 59 39 28 16 15 16 14 7 18 12 17 16 16 15
41 41 43 41 36 37 37 41 41 38 29 10 13 13 21 35 32 25 25 30 38 44 33 24 36 26 37 13 9 12 21 12 11 8 32 14 13 9 3 5 10 12 29 29 33 25 14
44 42 41 42 42 38 35 36 38 37 31 10 20 23 17 22 14 17 20 45 30 38 36 40 31 10 15 14 21 24 38 37 19 6 9 18 12 9 9 2 12 12 9 11 16 29 31
39 40 39 41 42 40 35 36 32 30 27 21 24 35 21 14 16 15 41 45 31 25 11 40 41 12 26 42 32 23 27 28 18 18 11 11 10 9 8 7 11 13 15 10 31 27 32
41 40 41 39 44 38 36 35 32 27 27 26 13 17 22 12 26 27 43 40 42 43 21 24 27 24 32 32 11 9 7 7 11 16 13 11 10 12 9 11 8 9 15 5 7 6 17
43 40 40 37 39 40 40 33 32 27 26 29 3 9 25 16 4 30 32 38 13 22 18 31 33 22 13 3 2 4 4 5 3 7 8 25 19 11 8 11 0 15 12 20 12 7 10
47 42 39 39 36 35 37 33 30 27 23 25 10 2 18 24 38 31 10 18 28 23 9 10 35 13 12 3 5 3 11 5 11 7 9 5 9 11 10 5 15 19 27 39 9 14 27
45 42 40 38 37 36 33 31 28 26 21 22 12 2 23 22 54 28 17 25 34 20 10 31 26 19 10 4 5 6 7 15 11 14 31 14 6 2 7 9 9 41 20 10 5 41 41
42 39 37 35 31 29 31 28 26 26 19 19 16 7 15 18 28 21 31 24 13 15 26 20 15 18 17 8 10 9 7 8 5 8 24 9 5 8 5 9 8 17 23 51 46 39 33
Wind_Direction_500mb
337 335 334 335 335 334 332 331 330 330 328 327 326 326 327 327 328 328 327 325 326 325 327 325 318 316 306 271 248 293 17 185 195 205 216 221 252 261 261 289 128 103 103 104 110 119 127
335 334 332 332 330 332 331 328 326 325 324 324 324 323 323 324 325 325 324 323 321 321 324 322 316 310 285 256 289 234 242 213 208 208 215 220 244 260 271 285 105 117 127 123 123 114 107
338 337 336 332 329 329 331 330 327 323 323 322 321 322 320 320 321 322 321 320 316 318 320 318 311 306 265 248 247 216 259 225 209 212 216 228 254 273 281 303 117 156 116 123 103 118 118
335 336 337 335 331 329 327 328 327 325 322 321 321 321 320 318 319 318 318 317 311 313 314 308 302 299 266 111 219 225 228 216 195 207 230 244 262 269 280 299 148 136 131 123 142 121 150
334 333 331 331 331 328 326 326 326 324 322 322 321 320 319 318 317 316 316 316 308 310 308 286 278 284 269 275 204 195 211 214 194 204 228 250 264 270 291 293 249 159 198 129 131 168 149
331 329 328 327 326 327 323 322 322 323 322 321 321 319 318 318 318 314 315 315 307 310 309 281 214 289 249 220 203 206 205 204 205 218 235 242 261 233 284 275 204 189 220 152 151 201 166
331 329 327 327 324 324 323 320 320 320 321 321 320 318 317 317 319 315 315 324 324 322 313 258 275 223 291 278 202 205 201 205 204 221 211 233 219 239 242 247 253 201 183 127 221 209 139
334 331 329 327 325 324 322 321 319 318 319 320 319 317 316 316 316 310 304 300 299 298 305 287 277 261 268 263 218 194 193 202 208 206 203 227 217 241 245 250 228 240 156 181 223 182 125
334 332 331 329 327 326 324 323 321 318 319 319 318 316 316 315 316 300 276 314 330 310 285 283 258 257 252 250 205 188 199 194 194 212 212 215 214 236 244 256 240 245 177 208 166 178 154
334 334 331 329 328 326 325 323 323 320 318 317 316 316 317 317 313 269 281 319 317 352 301 264 221 229 239 239 195 194 200 204 197 207 221 218 235 228 240 251 228 245 270 283 161 148 176
333 333 332 329 328 328 325 323 322 321 320 318 314 314 313 316 302 296 301 298 297 335 292 236 208 188 198 217 198 191 193 206 219 195 199 218 225 229 237 247 241 215 260 244 264 194 167
331 332 330 330 328 329 326 323 321 321 320 321 312 309 306 304 293 322 283 328 357 291 251 288 160 162 183 202 212 214 185 212 233 232 226 233 222 231 230 241 255 235 213 286 250 169 53
329 331 330 330 330 328 327 325 323 320 321 323 310 303 294 285 272 277 300 317 196 229 295 257 154 161 178 179 198 225 183 193 216 207 236 222 238 246 234 204 234 187 151 274 348 351 225
325 328 329 330 330 330 330 328 326 324 323 323 308 309 292 274 276 275 217 235 232 238 238 283 316 202 183 190 196 223 190 193 220 234 217 220 240 235 236 200 194 202 166 156 195 199 242
330 328 330 332 332 332 330 329 328 328 327 327 316 315 296 272 231 216 162 218 208 241 256 260 281 279 207 194 177 204 211 196 205 223 226 208 240 252 221 168 170 225 182 191 187 237 317
325 327 329 330 332 332 333 333 332 330 330 333 324 322 292 249 189 167 186 239 231 244 270 284 283 289 288 206 193 191 222 194 199 215 226 250 215 235 214 173 238 158 152 218 343 221 286
321 324 325 328 329 332 335 336 335 334 332 335 322 313 315 181 186 171 219 227 236 257 273 277 282 289 289 309 197 196 214 194 198 205 224 235 216 256 178 192 190 127 165 169 171 155 193
318 322 323 324 326 331 332 335 337 337 333 342 346 272 156 169 176 210 236 250 258 268 272 279 276 270 277 316 311 228 216 195 192 202 223 225 198 239 210 182 174 196 178 164 127 271 222
314 318 320 324 326 329 332 336 338 342 342 341 317 273 219 208 220 243 253 245 259 260 263 274 280 264 274 279 309 297 306 216 192 194 222 216 230 244 289 200 185 198 214 173 151 126 238
307 313 317 321 323 325 330 335 337 339 340 335 298 289 251 249 245 252 269 279 270 253 260 268 278 297 315 299 273 279 290 285 205 196 210 205 220 172 205 204 171 198 209 176 162 149 223
304 307 313 315 319 324 330 334 336 337 333 314 249 273 350 314 305 324 307 297 275 281 270 276 276 295 293 295 301 273 276 336 320 193 200 203 200 196 213 245 269 208 196 210 207 209 164
295 299 305 312 312 317 325 331 337 340 346 305 301 350 329 297 288 280 275 282 261 266 272 291 337 217 250 300 4 341 353 23 255 305 188 187 189 126 112 357 242 249 198 212 236 216 244
290 293 300 307 311 312 319 325 336 343 355 327 312 343 320 290 304 310 308 316 286 256 274 312 317 299 286 28 309 316 305 290 279 298 211 137 129 103 160 359 337 326 273 229 247 213 207
302 303 304 302 305 308 310 316 326 337 341 322 310 321 298 296 308 331 304 333 319 357 40 294 300 300 6 350 322 311 298 287 331 356 30 104 96 109 148 124 249 247 301 332 78 41 41
292 293 293 298 311 309 312 311 316 324 320 315 321 299 304 299 303 319 334 319 329 334 322 291 301 319 319 1 320 322 342 359 331 312 50 68 89 62 128 186 218 273 263 141 163 59 35
287 288 290 289 292 300 306 309 310 313 313 312 262 351 311 286 253 344 322 0 350 348 336 360 227 269 43 317 164 288 255 72 251 306 135 67 80 99 80 95 103 237 146 108 38 60 3
284 290 290 291 285 290 298 307 308 307 311 312 273 4 314 291 277 342 356 328 336 338 308 339 339 333 355 196 305 234 275 269 321 108 324 10 68 116 118 115 285 355 288 94 110 231 22
281 283 287 288 286 283 287 301 305 304 306 312 203 48 312 295 287 278 321 327 334 1 339 325 323 10 350 348 211 241 229 266 239 167 172 188 164 110 129 95 282 346 325 111 157 86 96
275 277 281 281 288 281 283 286 297 300 295 299 280 272 304 272 254 267 289 289 288 305 299 316 308 13 2 346 13 317 273 269 32 81 319 30 359 124 213 140 170 94 18 23 47 49 47
Wind_Speed_850mb
39 40 41 42 37 34 38 40 39 39 40 43 43 43 43 44 44 44 43 46 42 43 47 42 43 36 28 17 45 9 8 22 29 34 34 36 42 47 25 17 11 17 20 51 60 64 59
37 39 40 41 42 41 37 37 41 43 42 42 45 45 44 44 46 44 44 45 46 44 48 42 40 34 20 16 5 19 11 26 35 37 37 40 41 42 49 36 14 18 28 41 54 57 54
38 37 41 41 41 41 42 43 41 41 45 45 45 45 46 45 46 46 44 44 47 46 47 41 32 29 24 47 5 21 19 31 37 36 36 37 38 43 50 20 25 17 17 26 27 57 41
42 43 42 41 44 45 44 44 45 44 45 46 45 46 46 47 47 46 44 43 49 48 48 37 23 22 22 1 18 25 13 16 39 30 31 29 33 48 50 40 10 11 15 12 19 27 37
43 44 45 46 45 47 48 48 48 47 45 47 48 45 47 46 48 49 44 43 50 50 50 27 13 19 28 7 33 28 30 29 35 34 41 39 44 47 35 11 7 11 11 26 10 13 15
45 45 47 48 50 47 50 50 50 50 51 47 48 49 46 46 46 50 44 43 51 39 16 11 16 13 36 30 38 38 32 39 36 35 41 45 37 8 10 4 13 14 10 28 21 20 16
47 48 49 50 50 49 50 54 53 51 50 53 51 50 49 44 43 47 44 44 19 9 21 25 23 34 64 27 34 39 40 44 47 44 17 37 6 13 24 23 24 20 21 18 12 20 13
48 50 50 51 52 51 51 51 57 54 51 51 54 54 51 45 41 41 38 31 40 32 45 54 61 69 72 54 32 41 48 48 41 17 17 13 18 26 33 35 21 20 21 25 25 26 17
49 51 51 51 51 53 55 53 53 55 54 53 51 55 54 48 42 30 27 26 45 46 27 72 74 66 68 54 40 45 53 57 17 19 23 21 20 37 40 34 24 23 15 29 24 25 19
51 51 51 50 51 52 54 56 55 53 54 53 52 50 53 53 27 18 30 33 25 28 7 22 24 56 62 62 23 49 57 50 17 29 28 22 31 41 40 35 21 15 12 12 24 40 18
51 51 53 50 50 51 53 53 55 55 55 53 51 48 45 44 47 36 33 33 20 21 9 15 23 22 53 56 28 39 61 61 27 21 18 27 33 37 39 32 16 16 17 13 13 9 11
50 52 53 52 50 49 50 51 52 54 57 56 51 47 45 37 48 26 16 15 11 4 16 15 28 25 35 39 41 31 63 59 46 24 27 24 45 30 30 25 22 13 5 10 14 3 1
51 52 52 51 49 49 49 50 51 52 53 56 57 48 47 46 43 15 29 15 2 11 16 12 31 41 40 19 37 37 41 37 32 21 22 25 40 32 34 16 18 9 8 5 5 3 12
50 52 50 49 48 48 50 50 52 54 53 54 61 53 46 45 34 27 5 2 13 24 47 33 36 18 34 33 32 38 34 33 37 32 12 18 25 37 29 19 21 16 18 11 11 8 15
46 46 47 47 47 47 50 52 53 54 52 60 64 51 47 29 20 27 10 11 13 26 35 38 38 30 23 39 22 36 29 37 36 39 28 19 26 26 24 11 20 20 11 18 9 10 7
46 47 44 43 45 48 50 52 54 57 51 57 63 55 41 19 28 31 7 14 19 45 46 42 43 41 41 39 38 40 37 41 37 42 36 26 14 28 19 25 24 22 15 5 6 4 10
49 47 44 43 44 47 51 53 55 59 53 48 41 23 34 35 43 21 10 15 27 55 54 39 49 53 46 14 36 27 39 37 46 42 46 38 15 28 22 17 18 4 9 7 13 11 10
47 48 43 41 41 44 46 48 51 54 58 45 15 8 31 44 13 14 16 16 41 40 56 47 46 43 42 15 17 23 32 38 58 43 44 45 11 23 28 16 25 17 17 18 11 8 3
43 45 43 41 41 41 44 48 45 46 52 61 28 20 31 35 10 17 20 39 50 39 42 46 48 38 30 16 15 20 21 36 58 47 45 29 26 20 12 17 25 30 18 17 13 8 8
40 43 44 42 40 40 41 43 43 40 39 46 15 8 19 36 38 22 27 33 37 53 44 54 47 23 27 16 20 23 30 27 56 47 77 35 14 17 14 18 21 21 27 17 17 10 12
41 44 45 37 40 41 40 42 40 38 36 29 11 9 20 10 14 32 28 29 45 43 44 40 30 16 31 26 26 19 26 14 32 59 39 28 16 15 16 14 7 18 12 17 16 16 15
41 41 43 41 36 37 37 41 41 38 29 10 13 13 21 35 32 25 25 30 38 44 33 24 36 26 37 13 9 12 21 12 11 8 32 14 13 9 3 5 10 12 29 29 33 25 14
44 42 41 42 42 38 35 36 38 37 31 10 20 23 17 22 14 17 20 45 30 38 36 40 31 10 15 14 21 24 38 37 19 6 9 18 12 9 9 2 12 12 9 11 16 29 31
39 40 39 41 42 40 35 36 32 30 27 21 24 35 21 14 16 15 41 45 31 25 11 40 41 12 26 42 32 23 27 28 18 18 11 11 10 9 8 7 11 13 15 10 31 27 32
41 40 41 39 44 38 36 35 32 27 27 26 13 17 22 12 26 27 43 40 42 43 21 24 27 24 32 32 11 9 7 7 11 16 13 11 10 12 9 11 8 9 15 5 7 6 17
43 40 40 37 39 40 40 33 32 27 26 29 3 9 25 16 4 30 32 38 13 22 18 31 33 22 13 3 2 4 4 5 3 7 8 25 19 11 8 11 0 15 12 20 12 7 10
47 42 39 39 36 35 37 33 30 27 23 25 10 2 18 24 38 31 10 18 28 23 9 10 35 13 12 3 5 3 11 5 11 7 9 5 9 11 10 5 15 19 27 39 9 14 27
45 42 40 38 37 36 33 31 28 26 21 22 12 2 23 22 54 28 17 25 34 20 10 31 26 19 10 4 5 6 7 15 11 14 31 14 6 2 7 9 9 41 20 10 5 41 41
42 39 37 35 31 29 31 28 26 26 19 19 16 7 15 18 28 21 31 24 13 15 26 20 15 18 17 8 10 9 7 8 5 8 24 9 5 8 5 9 8 17 23 51 46 39 33
Wind_Direction_850mb
337 335 334 335 335 334 332 331 330 330 328 327 326 326 327 327 328 328 327 325 326 325 327 325 318 316 306 271 248 293 17 185 195 205 216 221 252 261 261 289 128 103 103 104 110 119 127
335 334 332 332 330 332 331 328 326 325 324 324 324 323 323 324 325 325 324 323 321 321 324 322 316 310 285 256 289 234 242 213 208 208 215 220 244 260 271 285 105 117 127 123 123 114 107
338 337 336 332 329 329 331 330 327 323 323 322 321 322 320 320 321 322 321 320 316 318 320 318 311 306 265 248 247 216 259 225 209 212 216 228 254 273 281 303 117 156 116 123 103 118 118
335 336 337 335 331 329 327 328 327 325 322 321 321 321 320 318 319 318 318 317 311 313 314 308 302 299 266 111 219 225 228 216 195 207 230 244 262 269 280 299 148 136 131 123 142 121 150
334 333 331 331 331 328 326 326 326 324 322 322 321 320 319 318 317 316 316 316 308 310 308 286 278 284 269 275 204 195 211 214 194 204 228 250 264 270 291 293 249 159 198 129 131 168 149
331 329 328 327 326 327 323 322 322 323 322 321 321 319 318 318 318 314 315 315 307 310 309 281 214 289 249 220 203 206 205 204 205 218 235 242 261 233 284 275 204 189 220 152 151 201 166
331 329 327 327 324 324 323 320 320 320 321 321 320 318 317 317 319 315 315 324 324 322 313 258 275 223 291 278 202 205 201 205 204 221 211 233 219 239 242 247 253 201 183 127 221 209 139
334 331 329 327 325 324 322 321 319 318 319 320 319 317 316 316 316 310 304 300 299 298 305 287 277 261 268 263 218 194 193 202 208 206 203 227 217 241 245 250 228 240 156 181 223 182 125
334 332 331 329 327 326 324 323 321 318 319 319 318 316 316 315 316 300 276 314 330 310 285 283 258 257 252 250 205 188 199 194 194 212 212 215 214 236 244 256 240 245 177 208 166 178 154
334 334 331 329 328 326 325 323 323 320 318 317 316 316 317 317 313 269 281 319 317 352 301 264 221 229 239 239 195 194 200 204 197 207 221 218 235 228 240 251 228 245 270 283 161 148 176
333 333 332 329 328 328 325 323 322 321 320 318 314 314 313 316 302 296 301 298 297 335 292 236 208 188 198 217 198 191 193 206 219 195 199 218 225 229 237 247 241 215 260 244 264 194 167
331 332 330 330 328 329 326 323 321 321 320 321 312 309 306 304 293 322 283 328 357 291 251 288 160 162 183 202 212 214 185 212 233 232 226 233 222 231 230 241 255 235 213 286 250 169 53
329 331 330 330 330 328 327 325 323 320 321 323 310 303 294 285 272 277 300 317 196 229 295 257 154 161 178 179 198 225 183 193 216 207 236 222 238 246 234 204 234 187 151 274 348 351 225
325 328 329 330 330 330 330 328 326 324 323 323 308 309 292 274 276 275 217 235 232 238 238 283 316 202 183 190 196 223 190 193 220 234 217 220 240 235 236 200 194 202 166 156 195 199 242
330 328 330 332 332 332 330 329 328 328 327 327 316 315 296 272 231 216 162 218 208 241 256 260 281 279 207 194 177 204 211 196 205 223 226 208 240 252 221 168 170 225 182 191 187 237 317
325 327 329 330 332 332 333 333 332 330 330 333 324 322 292 249 189 167 186 239 231 244 270 284 283 289 288 206 193 191 222 194 199 215 226 250 215 235 214 173 238 158 152 218 343 221 286
321 324 325 328 329 332 335 336 335 334 332 335 322 313 315 181 186 171 219 227 236 257 273 277 282 289 289 309 197 196 214 194 198 205 224 235 216 256 178 192 190 127 165 169 171 155 193
318 322 323 324 326 331 332 335 337 337 333 342 346 272 156 169 176 210 236 250 258 268 272 279 276 270 277 316 311 228 216 195 192 202 223 225 198 239 210 182 174 196 178 164 127 271 222
314 318 320 324 326 329 332 336 338 342 342 341 317 273 219 208 220 243 253 245 259 260 263 274 280 264 274 279 309 297 306 216 192 194 222 216 230 244 289 200 185 198 214 173 151 126 238
307 313 317 321 323 325 330 335 337 339 340 335 298 289 251 249 245 252 269 279 270 253 260 268 278 297 315 299 273 279 290 285 205 196 210 205 220 172 205 204 171 198 209 176 162 149 223
304 307 313 315 319 324 330 334 336 337 333 314 249 273 350 314 305 324 307 297 275 281 270 276 276 295 293 295 301 273 276 336 320 193 200 203 200 196 213 245 269 208 196 210 207 209 164
295 299 305 312 312 317 325 331 337 340 346 305 301 350 329 297 288 280 275 282 261 266 272 291 337 217 250 300 4 341 353 23 255 305 188 187 189 126 112 357 242 249 198 212 236 216 244
290 293 300 307 311 312 319 325 336 343 355 327 312 343 320 290 304 310 308 316 286 256 274 312 317 299 286 28 309 316 305 290 279 298 211 137 129 103 160 359 337 326 273 229 247 213 207
302 303 304 302 305 308 310 316 326 337 341 322 310 321 298 296 308 331 304 333 319 357 40 294 300 300 6 350 322 311 298 287 331 356 30 104 96 109 148 124 249 247 301 332 78 41 41
292 293 293 298 311 309 312 311 316 324 320 315 321 299 304 299 303 319 334 319 329 334 322 291 301 319 319 1 320 322 342 359 331 312 50 68 89 62 128 186 218 273 263 141 163 59 35
287 288 290 289 292 300 306 309 310 313 313 312 262 351 311 286 253 344 322 0 350 348 336 360 227 269 43 317 164 288 255 72 251 306 135 67 80 99 80 95 103 237 146 108 38 60 3
284 290 290 291 285 290 298 307 308 307 311 312 273 4 314 291 277 342 356 328 336 338 308 339 339 333 355 196 305 234 275 269 321 108 324 10 68 116 118 115 285 355 288 94 110 231 22
281 283 287 288 286 283 287 301 305 304 306 312 203 48 312 295 287 278 321 327 334 1 339 325 323 10 350 348 211 241 229 266 239 167 172 188 164 110 129 95 282 346 325 111 157 86 96
275 277 281 281 288 281 283 286 297 300 295 299 280 272 304 272 254 267 289 289 288 305 299 316 308 13 2 346 13 317 273 269 32 81 319 30 359 124 213 140 170 94 18 23 47 49 47